Location: Boone Canyon
(38.3180°N, 119.2504°W)
Time: 17:28:50
(UTC+00:00)

SKYMED 2 - Pass Details

Date: 18 September 2020
Orbit: 621 x 623 km, 97.9° (Epoch: 20 October)

Event Time Altitude Azimuth Distance (km) Brightness Sun altitude
Rises 13:03:00 0° 161° (SSE) 2,889 7.1 -8.4°
Reaches altitude 10° 13:05:11 10° 160° (SSE) 1,987 6.3 -8.0°
Maximum altitude 13:09:29 73° 76° (ENE) 656 3.9 -7.1°
Drops below altitude 10° 13:13:49 10° 352° (N) 2,001 6.2 -6.3°
Sets 13:16:01 0° 350° (N) 2,911 7.0 -5.9°
